Theta_e
331 331 329 327 321 316 310 305 302 302 300 300 301 300 299 298 297 297 297 295 295 294
326 327 325 323 318 313 306 299 298 298 297 298 297 297 296 296 294 295 294 294 293 292
324 325 322 318 312 305 301 296 296 297 296 295 296 295 294 293 293 292 292 292 291 291
317 315 311 308 304 301 299 295 294 295 294 293 293 293 292 292 291 291 290 290 290 289
310 303 303 300 298 296 294 294 292 293 292 292 292 292 291 289 290 289 289 289 289 288
303 302 302 296 293 293 291 291 289 291 290 290 290 290 290 289 289 289 289 288 288 287
300 300 296 296 290 290 289 289 288 290 290 289 289 289 289 288 288 288 288 288 288 287
296 295 292 289 290 288 289 287 288 288 288 288 288 288 287 288 288 287 287 287 287 287
290 289 289 288 286 286 285 286 286 286 286 287 286 287 288 287 287 286 285 285 286 286
289 288 286 285 284 284 284 284 284 285 285 286 286 288 287 287 286 285 285 285 285 284
287 287 285 283 283 283 283 283 284 284 284 286 286 288 288 286 285 285 285 285 285 285
287 286 284 283 282 282 282 283 283 283 283 284 285 288 288 285 284 284 283 284 285 285
287 286 284 284 283 283 284 283 282 282 283 284 285 288 288 286 284 283 283 283 284 283
285 285 285 284 283 283 282 281 282 281 281 282 284 286 287 287 284 284 282 283 283 284
Wind_Speed
18 12 13 14 11 10 9 8 9 9 8 8 9 8 8 6 5 6 5 6 5 4
12 15 12 14 12 10 10 8 9 11 10 10 10 9 8 6 7 6 6 5 6 5
11 12 10 12 13 12 10 11 12 12 12 11 10 10 8 7 7 7 5 4 7 5
7 8 10 10 11 11 14 11 12 13 13 12 11 9 8 8 8 7 7 6 6 6
9 7 7 8 10 11 11 12 13 12 13 12 11 10 10 9 8 8 8 7 7 7
8 10 11 10 9 11 13 11 11 12 13 12 11 11 9 9 9 8 8 7 7 8
10 11 10 12 11 12 12 13 11 11 12 11 11 10 10 9 9 9 8 7 7 7
9 9 10 10 10 9 11 9 10 11 11 11 10 8 11 10 10 9 9 8 7 7
9 9 10 11 12 10 9 10 10 10 10 11 7 14 15 11 10 9 10 9 8 7
10 10 10 10 10 11 10 10 10 10 10 9 9 17 16 13 8 9 9 9 8 6
11 11 11 11 10 10 8 9 9 10 9 10 9 19 18 15 7 7 8 8 8 8
11 12 12 13 12 10 10 9 9 8 9 9 8 19 17 14 8 7 8 7 7 9
11 12 13 13 13 9 9 9 7 8 8 9 9 18 19 15 6 7 6 6 7 11
10 11 12 12 10 10 10 9 8 8 7 8 8 12 19 19 7 6 6 6 7 6
Wind_Direction
218 214 209 202 177 178 176 164 156 159 145 152 150 137 132 125 121 119 118 127 120 110
214 213 200 196 186 172 154 147 153 154 145 155 142 143 140 137 130 127 123 123 121 112
207 201 186 180 176 168 153 151 155 159 154 149 146 148 143 134 137 134 132 138 129 125
185 180 167 170 164 163 155 155 152 165 154 148 151 153 145 144 146 146 142 140 135 132
173 153 157 156 159 151 159 158 151 169 149 147 153 156 151 149 153 159 157 149 148 145
172 174 175 162 160 157 145 166 149 158 154 150 155 154 155 153 159 163 154 159 163 162
182 182 168 171 159 159 149 162 161 156 154 146 149 152 156 159 158 153 153 161 174 172
174 167 155 148 152 153 152 161 148 145 145 148 156 160 165 164 160 157 156 171 177 176
158 151 160 155 155 151 151 153 143 150 148 156 162 167 166 161 162 164 166 174 185 173
164 165 161 156 155 154 159 149 160 152 151 159 161 167 168 164 162 168 175 176 185 188
170 168 155 153 160 154 160 160 169 156 161 160 168 173 172 169 165 168 176 184 189 199
175 167 166 168 166 164 158 161 174 162 160 164 170 177 174 166 169 170 184 183 194 209
179 173 175 174 168 168 169 166 159 156 165 169 169 183 184 177 167 178 180 189 204 214
180 182 179 171 167 164 161 156 164 161 166 174 173 187 190 185 179 180 181 195 203 204